Location: Barcelona
(41.3829°N, 2.1774°E)
Time: 20:11:18
(UTC+00:00)

ISS - Pass Details

Date: 11 July 2025
Orbit: 413 x 417 km, 51.6° (Epoch: 13 July)

Event Time Altitude Azimuth Distance (km) Brightness Sun altitude
Rises 21:32:19 0° 279° (W) 2,348 0.7 -18.3°
Reaches altitude 10° 21:34:51 10° 299° (WNW) 1,488 0.0 -18.6°
Maximum altitude 21:37:16 18° 345° (NNW) 1,085 -0.8 -18.9°
Drops below altitude 10° 21:39:42 10° 32° (NNE) 1,492 -0.7 -19.1°
Sets 21:42:15 0° 52° (NE) 2,357 0.1 -19.4°
